AirNav   Pilot Hours Calculator
 
 543 users online  

4R9 Jeremiah Denton Airport
Dauphin Island, Alabama, USA

GOING TO DAUPHIN ISLAND?


FAA INFORMATION EFFECTIVE 08 OCTOBER 2020

Location

FAA Identifier: 4R9
Lat/Long: 30-15-37.7700N 088-07-38.9000W
30-15.629500N 088-07.648333W
30.2604917,-88.1274722
(estimated)
Elevation: 5.3 ft. / 1.6 m (surveyed)
Variation: 02E (1985)
Time zone: UTC -5 (UTC -6 during Standard Time)
Zip code: 36528

Airport Operations

Airport use: Open to the public
Activation date: 02/1967
Control tower: no
ARTCC: HOUSTON CENTER
FSS: ANNISTON FLIGHT SERVICE STATION
NOTAMs facility: ANB (NOTAM-D service available)
Attendance: UNATNDD
Wind indicator: lighted
Segmented circle: yes
Lights: ACTVT PAPI RWY 12 & 30; MIRL RWY 12/30 - CTAF.
Beacon: white-green (lighted land airport)
Operates sunset to sunrise.

Airport Communications

CTAF/UNICOM: 122.8
WX AWOS-3PT at CQF (18 nm NE): 118.425 (251-928-3242)

Nearby radio navigation aids

VOR radial/distance  VOR name  Freq  Var
BFMr186/21.5BROOKLEY VORTAC112.8004E
SJIr152/30.4SEMMES VORTAC115.3005E

 
NDB name  Hdg/Dist  Freq  Var  ID
WISLE164/31.424801WMOB -- --- -...

Airport Services

Parking: tiedowns
Airframe service: NONE
Powerplant service: NONE
Bottled oxygen: NONE
Bulk oxygen: NONE

Runway Information

Runway 12/30

Dimensions: 3000 x 80 ft. / 914 x 24 m
Surface: asphalt, in fair condition
Weight bearing capacity: 
Single wheel: 30.0
Runway edge lights: medium intensity
RUNWAY 12  RUNWAY 30
Latitude: 30-15.765500N30-15.493500N
Longitude: 088-07.886500W088-07.410167W
Elevation: 4.7 ft.5.3 ft.
Traffic pattern: leftleft
Displaced threshold: 202 ft.140 ft.
Markings: basic, in fair conditionbasic, in fair condition
Visual slope indicator: 2-light PAPI on left (3.00 degrees glide path)2-light PAPI on right (3.50 degrees glide path)
Touchdown point: yes, no lightsyes, no lights
Obstructions: none
APCH SLOPE 50:1 TO DSPLCD THR.
45 ft. trees, 1119 ft. from runway, 19 ft. left of centerline, 20:1 slope to clear
APCH SLOPE 27:1 TO DSPLCD THR.

Airport Ownership and Management from official FAA records

Ownership: Publicly-owned
Owner: MOBILE COUNTY
205 GOVERNMENT ST
MOBILE, AL 36644
Phone 251-824-2831
Manager: WILLIAM MEREDITH
11562 FAIRWAY DR
IRVINGTON, AL 36544
Phone 251-824-2831

Airport Operational Statistics

Aircraft operations: avg 70/week *
60% transient general aviation
40% local general aviation
* for 12-month period ending 31 May 2019

Additional Remarks

BIRDS ON & INVOF ARPT.
EXTSV BANNER TOW OPNS ARND IS CST LN & N TO MOBILE.
FOR CD CTC MOBILE APCH AT 251-662-6236, WHEN APCH CLSD CTC HOUSTON ARTCC AT 281-230-5622.

Instrument Procedures

There are no published instrument procedures at 4R9.

Some nearby airports with instrument procedures:

2R5 - St Elmo Airport (16 nm NW)
KCQF - H L Sonny Callahan Airport (18 nm NE)
KBFM - Mobile Downtown Airport (22 nm N)
KJKA - Jack Edwards National Airport (24 nm E)
KPQL - Trent Lott International Airport (24 nm NW)
 
Loc | Ops | Rwys | IFR | FBO | Links
Com | Nav | Svcs | Stats | Notes

Continental Services
AirBoss

 
Area around 4R9 (Jeremiah Denton Airport)
 
Road maps at: MapQuest Bing Google
 
Aerial photo
WARNING: Photo may not be current or correct
Aerial photo of 4R9 (Jeremiah Denton Airport)
Photo taken 28-Sep-2019

Do you have a better or more recent aerial photo of Jeremiah Denton Airport that you would like to share? If so, please send us your photo.

 
Sectional chart

 
Airport distance calculator
Flying to Jeremiah Denton Airport? Find the distance to fly.

From to 4R9

Sunrise and sunset
Times for 27-Oct-2020
 Local
(UTC-5)
 Zulu
(UTC)
Morning civil twilight06:4011:40
Sunrise07:0512:05
Sunset18:0823:08
Evening civil twilight18:3323:33

Current date and time
Zulu (UTC)  27-Oct-2020 10:44:01
Local (UTC-5)  27-Oct-2020 05:44:01
 
METAR
KCQF 
18nm NE 
271015Z AUTO 05004KT 10SM SCT037 BKN043 OVC075 21/19 A3001 RMK AO2
KBFM 
22nm N 
270953Z 36005KT 10SM FEW035 BKN046 BKN065 23/20 A3002 RMK AO2 SLP164 T02330200
KPQL 
24nm NW 
270953Z AUTO 04004KT 10SM SCT050 22/19 A2999 RMK AO2 SLP157 T02170189
KMOB 
26nm N 
270956Z AUTO 04006KT 10SM FEW041 BKN060 21/19 A3002 RMK AO2 SLP161 T02060189
TAF
KBFM 
22nm N 
270521Z 2706/2806 04008KT P6SM FEW035 SCT080 FM271500 08007KT P6SM VCSH BKN015 BKN040 FM271800 11010G18KT 6SM SHRA OVC030 FM280300 09010KT 6SM SHRA OVC025
KMOB 
26nm N 
270521Z 2706/2806 04008KT P6SM FEW035 SCT080 FM271500 08007KT P6SM VCSH BKN015 BKN040 FM271800 11010G18KT 6SM SHRA OVC030 FM280300 10012KT 6SM SHRA OVC025
NOTAMs
Click for the latest NOTAMs
NOTAMs are issued by the DoD/FAA and will open in a separate window not controlled by AirNav.

 

 
 

Would you like to see your business listed on this page?

 If your business provides an interesting product or service to pilots, flight crews, aircraft, or users of the Jeremiah Denton Airport, you should consider listing it here.  To start the listing process, click on the button below
 
Add a business
 

Other Pages about Jeremiah Denton Airport

gulfinfo.com/...
 
Update a link
 
Copyright © AirNav, LLC. All rights reserved. Privacy Policy  Contact